Time,TemperatureF,DewpointF,PressureIn,WindDirection,WindDirectionDegrees,WindSpeedMPH,WindSpeedGustMPH,Humidity,HourlyPrecipIn,Conditions,Clouds,dailyrainin,SoftwareType,DateUTC
2013-07-02 00:00:00,82.2,82.2,29.93,East,100,1.0,1.0,100,0.00,,,0.00,Wunderground v.1.15,2013-07-02 04:00:00,
2013-07-02 00:05:00,82.2,82.2,29.93,East,95,1.0,3.0,100,0.00,,,0.00,Wunderground v.1.15,2013-07-02 04:05:00,
2013-07-02 00:10:00,82.2,82.2,29.93,East,85,1.0,1.0,100,0.00,,,0.00,Wunderground v.1.15,2013-07-02 04:10:00,
2013-07-02 00:15:00,82.4,82.4,29.92,ESE,103,1.0,1.0,100,0.00,,,0.00,Wunderground v.1.15,2013-07-02 04:15:00,
2013-07-02 00:20:00,82.4,82.4,29.92,ESE,113,2.0,2.0,100,0.00,,,0.00,Wunderground v.1.15,2013-07-02 04:20:00,
2013-07-02 00:30:00,82.4,82.4,29.93,ESE,102,1.0,1.0,100,0.00,,,0.00,Wunderground v.1.15,2013-07-02 04:30:00,
2013-07-02 00:40:00,82.4,82.4,29.93,ESE,102,2.0,5.0,100,0.00,,,0.00,Wunderground v.1.15,2013-07-02 04:40:00,
2013-07-02 00:50:00,82.4,82.4,29.92,ESE,102,2.0,4.0,100,0.00,,,0.00,Wunderground v.1.15,2013-07-02 04:50:00,
2013-07-02 01:00:00,82.6,82.6,29.92,ENE,73,2.0,2.0,100,0.00,,,0.00,Wunderground v.1.15,2013-07-02 05:00:00,
2013-07-02 01:10:00,82.6,82.6,29.92,ESE,102,2.0,2.0,100,0.00,,,0.00,Wunderground v.1.15,2013-07-02 05:10:00,
2013-07-02 01:15:00,82.6,82.6,29.91,ENE,78,2.0,2.0,100,0.00,,,0.00,Wunderground v.1.15,2013-07-02 05:15:00,
2013-07-02 01:25:00,82.6,82.6,29.91,ENE,78,1.0,1.0,100,0.00,,,0.00,Wunderground v.1.15,2013-07-02 05:25:00,
2013-07-02 01:35:00,82.8,82.8,29.91,East,92,2.0,6.0,100,0.00,,,0.00,Wunderground v.1.15,2013-07-02 05:35:00,
2013-07-02 01:45:00,82.8,82.8,29.91,East,92,1.0,2.0,100,0.00,,,0.00,Wunderground v.1.15,2013-07-02 05:45:00,
2013-07-02 01:55:00,82.8,82.8,29.91,East,90,1.0,6.0,100,0.00,,,0.00,Wunderground v.1.15,2013-07-02 05:55:00,
2013-07-02 02:05:00,82.8,82.8,29.91,ESE,113,1.0,2.0,100,0.00,,,0.00,Wunderground v.1.15,2013-07-02 06:05:00,
2013-07-02 02:15:00,83.0,83.0,29.90,ESE,110,2.0,5.0,100,0.00,,,0.00,Wunderground v.1.15,2013-07-02 06:15:00,
2013-07-02 02:35:00,83.0,83.0,29.90,SE,126,2.0,7.0,100,0.00,,,0.00,Wunderground v.1.15,2013-07-02 06:35:00,
2013-07-02 02:45:00,83.2,83.2,29.89,SSE,168,3.0,7.0,100,0.00,,,0.00,Wunderground v.1.15,2013-07-02 06:45:00,
2013-07-02 02:55:00,83.2,83.2,29.89,SE,124,4.0,7.0,100,0.00,,,0.00,Wunderground v.1.15,2013-07-02 06:55:00,
2013-07-02 03:05:00,83.2,83.2,29.89,SE,134,4.0,4.0,100,0.00,,,0.00,Wunderground v.1.15,2013-07-02 07:05:00,
2013-07-02 03:10:00,83.2,83.2,29.89,ESE,116,5.0,5.0,100,0.00,,,0.00,Wunderground v.1.15,2013-07-02 07:10:00,
2013-07-02 03:20:00,83.2,83.2,29.89,ESE,121,5.0,8.0,100,0.00,,,0.00,Wunderground v.1.15,2013-07-02 07:20:00,
2013-07-02 03:30:00,83.2,83.2,29.88,SE,137,6.0,7.0,100,0.00,,,0.00,Wunderground v.1.15,2013-07-02 07:30:00,
2013-07-02 03:40:00,83.2,83.2,29.88,SE,140,6.0,6.0,100,0.00,,,0.00,Wunderground v.1.15,2013-07-02 07:40:00,
2013-07-02 03:50:00,83.2,83.2,29.88,ESE,121,7.0,7.0,100,0.00,,,0.00,Wunderground v.1.15,2013-07-02 07:50:00,
2013-07-02 04:00:00,83.2,83.2,29.88,SE,137,6.0,6.0,100,0.00,,,0.00,Wunderground v.1.15,2013-07-02 08:00:00,
2013-07-02 04:10:00,83.2,83.2,29.88,ESE,121,6.0,10.0,100,0.00,,,0.00,Wunderground v.1.15,2013-07-02 08:10:00,
2013-07-02 04:15:00,83.2,83.2,29.87,ESE,123,7.0,10.0,100,0.00,,,0.00,Wunderground v.1.15,2013-07-02 08:15:00,
2013-07-02 04:25:00,83.2,83.2,29.87,ESE,104,9.0,11.0,100,0.00,,,0.00,Wunderground v.1.15,2013-07-02 08:25:00,
2013-07-02 04:35:00,83.4,83.4,29.87,ESE,103,6.0,10.0,100,0.00,,,0.00,Wunderground v.1.15,2013-07-02 08:35:00,
2013-07-02 04:45:00,83.2,83.2,29.87,ESE,119,6.0,11.0,100,0.00,,,0.00,Wunderground v.1.15,2013-07-02 08:45:00,
2013-07-02 04:55:00,83.2,83.2,29.87,ESE,121,6.0,7.0,100,0.00,,,0.00,Wunderground v.1.15,2013-07-02 08:55:00,
2013-07-02 05:00:00,83.2,83.2,29.87,East,96,6.0,12.0,100,0.00,,,0.00,Wunderground v.1.15,2013-07-02 09:00:00,
2013-07-02 05:10:00,83.2,83.2,29.87,SSE,157,7.0,7.0,100,0.00,,,0.00,Wunderground v.1.15,2013-07-02 09:10:00,
2013-07-02 05:20:00,83.2,83.2,29.88,SE,128,7.0,7.0,100,0.00,,,0.00,Wunderground v.1.15,2013-07-02 09:20:00,
2013-07-02 05:25:00,83.2,83.2,29.88,ESE,123,7.0,11.0,100,0.00,,,0.00,Wunderground v.1.15,2013-07-02 09:25:00,
2013-07-02 05:35:00,83.2,83.2,29.88,East,97,6.0,7.0,100,0.00,,,0.00,Wunderground v.1.15,2013-07-02 09:35:00,
2013-07-02 05:45:00,83.2,83.2,29.89,ESE,116,5.0,10.0,100,0.00,,,0.00,Wunderground v.1.15,2013-07-02 09:45:00,
2013-07-02 05:55:00,83.0,83.0,29.89,ESE,121,4.0,10.0,100,0.00,,,0.00,Wunderground v.1.15,2013-07-02 09:55:00,
2013-07-02 06:05:00,83.2,83.2,29.89,ESE,109,5.0,8.0,100,0.00,,,0.00,Wunderground v.1.15,2013-07-02 10:05:00,
2013-07-02 06:10:00,83.2,83.2,29.89,ESE,116,5.0,8.0,100,0.00,,,0.00,Wunderground v.1.15,2013-07-02 10:10:00,
2013-07-02 06:20:00,83.4,83.4,29.89,SE,137,8.0,16.0,100,0.00,,,0.00,Wunderground v.1.15,2013-07-02 10:20:00,
2013-07-02 06:30:00,83.4,83.4,29.90,SE,124,7.0,7.0,100,0.00,,,0.00,Wunderground v.1.15,2013-07-02 10:30:00,
2013-07-02 06:40:00,83.4,83.4,29.90,SE,138,6.0,12.0,100,0.00,,,0.00,Wunderground v.1.15,2013-07-02 10:40:00,
2013-07-02 06:50:00,83.4,83.4,29.90,ESE,113,7.0,7.0,100,0.00,,,0.00,Wunderground v.1.15,2013-07-02 10:50:00,
2013-07-02 07:00:00,83.2,83.2,29.90,ESE,112,7.0,10.0,100,0.00,,,0.00,Wunderground v.1.15,2013-07-02 11:00:00,
2013-07-02 07:10:00,83.4,83.4,29.90,ESE,112,9.0,10.0,100,0.00,,,0.00,Wunderground v.1.15,2013-07-02 11:10:00,
2013-07-02 07:20:00,83.6,83.6,29.91,SE,130,9.0,9.0,100,0.00,,,0.00,Wunderground v.1.15,2013-07-02 11:20:00,
2013-07-02 07:30:00,83.6,83.6,29.91,SE,128,9.0,9.0,100,0.00,,,0.00,Wunderground v.1.15,2013-07-02 11:30:00,
2013-07-02 07:40:00,83.6,83.6,29.91,ESE,119,9.0,9.0,100,0.00,,,0.00,Wunderground v.1.15,2013-07-02 11:40:00,
2013-07-02 07:50:00,83.6,83.6,29.91,SE,131,5.0,10.0,100,0.00,,,0.00,Wunderground v.1.15,2013-07-02 11:50:00,
2013-07-02 08:00:00,83.6,83.6,29.92,ESE,123,6.0,7.0,100,0.00,,,0.00,Wunderground v.1.15,2013-07-02 12:00:00,
2013-07-02 08:05:00,83.8,83.8,29.92,SE,128,7.0,7.0,100,0.00,,,0.00,Wunderground v.1.15,2013-07-02 12:05:00,
2013-07-02 08:15:00,84.0,84.0,29.92,ESE,119,6.0,9.0,100,0.00,,,0.00,Wunderground v.1.15,2013-07-02 12:15:00,
2013-07-02 08:25:00,84.0,84.0,29.92,SSE,154,5.0,8.0,100,0.00,,,0.00,Wunderground v.1.15,2013-07-02 12:25:00,
2013-07-02 08:35:00,84.1,84.1,29.93,SE,127,5.0,8.0,100,0.00,,,0.00,Wunderground v.1.15,2013-07-02 12:35:00,
2013-07-02 08:40:00,84.3,84.3,29.93,SSE,151,5.0,6.0,100,0.00,,,0.00,Wunderground v.1.15,2013-07-02 12:40:00,
2013-07-02 08:50:00,84.5,84.5,29.93,SSE,155,5.0,5.0,100,0.00,,,0.00,Wunderground v.1.15,2013-07-02 12:50:00,
2013-07-02 09:00:00,84.7,84.7,29.93,ESE,121,6.0,8.0,100,0.00,,,0.00,Wunderground v.1.15,2013-07-02 13:00:00,
2013-07-02 09:10:00,84.9,84.9,29.93,ESE,114,6.0,7.0,100,0.00,,,0.00,Wunderground v.1.15,2013-07-02 13:10:00,
2013-07-02 09:20:00,84.9,84.9,29.93,South,169,3.0,4.0,100,0.00,,,0.00,Wunderground v.1.15,2013-07-02 13:20:00,
2013-07-02 09:30:00,84.9,84.9,29.93,SSE,162,4.0,4.0,100,0.00,,,0.00,Wunderground v.1.15,2013-07-02 13:30:00,
2013-07-02 09:40:00,85.3,85.3,29.93,ESE,113,4.0,4.0,100,0.00,,,0.00,Wunderground v.1.15,2013-07-02 13:40:00,
2013-07-02 09:50:00,85.5,85.5,29.94,SSE,168,4.0,5.0,100,0.00,,,0.00,Wunderground v.1.15,2013-07-02 13:50:00,
2013-07-02 10:00:00,85.5,85.5,29.95,SE,140,4.0,4.0,100,0.00,,,0.00,Wunderground v.1.15,2013-07-02 14:00:00,
2013-07-02 10:05:00,85.7,85.7,29.95,SSE,154,4.0,7.0,100,0.00,,,0.00,Wunderground v.1.15,2013-07-02 14:05:00,
2013-07-02 10:15:00,85.9,85.9,29.95,SE,127,4.0,4.0,100,0.00,,,0.00,Wunderground v.1.15,2013-07-02 14:15:00,
2013-07-02 10:25:00,85.9,85.9,29.95,SE,127,3.0,4.0,100,0.00,,,0.00,Wunderground v.1.15,2013-07-02 14:25:00,
2013-07-02 10:30:00,85.5,85.5,29.95,SE,145,3.0,3.0,100,0.00,,,0.00,Wunderground v.1.15,2013-07-02 14:30:00,
2013-07-02 10:40:00,85.3,85.3,29.95,SE,137,3.0,5.0,100,0.00,,,0.00,Wunderground v.1.15,2013-07-02 14:40:00,
2013-07-02 10:45:00,85.5,85.5,29.95,SE,133,4.0,5.0,100,0.00,,,0.00,Wunderground v.1.15,2013-07-02 14:45:00,
2013-07-02 10:55:00,85.5,85.5,29.95,SE,134,4.0,4.0,100,0.00,,,0.00,Wunderground v.1.15,2013-07-02 14:55:00,
2013-07-02 11:00:00,85.1,85.1,29.96,SE,131,4.0,6.0,100,0.00,,,0.00,Wunderground v.1.15,2013-07-02 15:00:00,
2013-07-02 11:10:00,84.9,84.9,29.96,SE,124,5.0,5.0,100,0.00,,,0.00,Wunderground v.1.15,2013-07-02 15:10:00,
2013-07-02 11:20:00,85.1,85.1,29.96,SE,136,4.0,4.0,100,0.00,,,0.00,Wunderground v.1.15,2013-07-02 15:20:00,
2013-07-02 11:30:00,85.1,85.1,29.95,ESE,119,3.0,7.0,100,0.00,,,0.00,Wunderground v.1.15,2013-07-02 15:30:00,
2013-07-02 11:40:00,85.1,85.1,29.95,ESE,112,4.0,4.0,100,0.00,,,0.00,Wunderground v.1.15,2013-07-02 15:40:00,
2013-07-02 11:50:00,85.3,85.3,29.95,ESE,113,3.0,7.0,100,0.00,,,0.00,Wunderground v.1.15,2013-07-02 15:50:00,
2013-07-02 11:55:00,85.5,85.5,29.95,ESE,110,2.0,7.0,100,0.00,,,0.00,Wunderground v.1.15,2013-07-02 15:55:00,
2013-07-02 12:05:00,85.7,85.7,29.95,ESE,113,1.0,4.0,100,0.00,,,0.00,Wunderground v.1.15,2013-07-02 16:05:00,
2013-07-02 12:15:00,85.3,85.3,29.95,ESE,106,4.0,5.0,100,0.00,,,0.00,Wunderground v.1.15,2013-07-02 16:15:00,
2013-07-02 12:25:00,85.1,85.1,29.95,ESE,112,4.0,5.0,100,0.00,,,0.00,Wunderground v.1.15,2013-07-02 16:25:00,
2013-07-02 12:35:00,85.5,85.5,29.96,ESE,104,1.0,2.0,100,0.00,,,0.00,Wunderground v.1.15,2013-07-02 16:35:00,
2013-07-02 12:45:00,85.7,85.7,29.96,East,99,2.0,3.0,100,0.00,,,0.00,Wunderground v.1.15,2013-07-02 16:45:00,
2013-07-02 12:55:00,85.9,85.9,29.96,ESE,112,2.0,2.0,100,0.00,,,0.00,Wunderground v.1.15,2013-07-02 16:55:00,
2013-07-02 13:00:00,85.5,85.5,29.96,ESE,112,2.0,2.0,100,0.00,,,0.00,Wunderground v.1.15,2013-07-02 17:00:00,
2013-07-02 13:10:00,85.9,85.9,29.96,SE,133,3.0,3.0,100,0.00,,,0.00,Wunderground v.1.15,2013-07-02 17:10:00,
2013-07-02 13:20:00,85.9,85.9,29.96,ESE,116,3.0,6.0,100,0.00,,,0.00,Wunderground v.1.15,2013-07-02 17:20:00,
2013-07-02 13:25:00,85.9,85.9,29.96,SE,128,4.0,6.0,100,0.00,,,0.00,Wunderground v.1.15,2013-07-02 17:25:00,
2013-07-02 13:35:00,86.1,86.1,29.96,ESE,117,5.0,10.0,100,0.00,,,0.00,Wunderground v.1.15,2013-07-02 17:35:00,
2013-07-02 13:40:00,86.5,86.5,29.96,SE,138,4.0,5.0,100,0.00,,,0.00,Wunderground v.1.15,2013-07-02 17:40:00,
2013-07-02 13:50:00,86.7,86.7,29.95,SE,131,2.0,2.0,100,0.00,,,0.00,Wunderground v.1.15,2013-07-02 17:50:00,
2013-07-02 14:00:00,85.3,85.3,29.94,SE,136,4.0,4.0,100,0.00,,,0.00,Wunderground v.1.15,2013-07-02 18:00:00,
2013-07-02 14:05:00,83.6,83.6,29.94,ESE,113,6.0,13.0,100,0.00,,,0.00,Wunderground v.1.15,2013-07-02 18:05:00,
2013-07-02 14:10:00,82.6,82.6,29.94,SSE,152,11.0,11.0,100,0.00,,,0.00,Wunderground v.1.15,2013-07-02 18:10:00,
2013-07-02 14:20:00,81.8,81.8,29.94,South,172,11.0,11.0,100,0.00,,,0.00,Wunderground v.1.15,2013-07-02 18:20:00,
2013-07-02 14:30:00,82.8,82.8,29.93,South,176,7.0,7.0,100,0.00,,,0.00,Wunderground v.1.15,2013-07-02 18:30:00,
2013-07-02 14:40:00,83.8,83.8,29.93,ESE,121,4.0,7.0,100,0.00,,,0.00,Wunderground v.1.15,2013-07-02 18:40:00,
2013-07-02 14:45:00,84.1,84.1,29.94,ENE,64,6.0,12.0,100,0.00,,,0.00,Wunderground v.1.15,2013-07-02 18:45:00,
2013-07-02 14:50:00,83.6,83.6,29.94,East,90,6.0,6.0,100,0.00,,,0.00,Wunderground v.1.15,2013-07-02 18:50:00,
2013-07-02 15:00:00,81.8,81.8,29.95,ENE,68,8.0,8.0,100,0.00,,,0.00,Wunderground v.1.15,2013-07-02 19:00:00,
2013-07-02 15:10:00,80.9,80.9,29.95,NE,52,8.0,8.0,100,0.00,,,0.00,Wunderground v.1.15,2013-07-02 19:10:00,
2013-07-02 15:20:00,79.9,79.9,29.95,ENE,73,11.0,11.0,100,0.00,,,0.00,Wunderground v.1.15,2013-07-02 19:20:00,
2013-07-02 15:30:00,80.3,80.3,29.94,ESE,109,10.0,10.0,100,0.00,,,0.00,Wunderground v.1.15,2013-07-02 19:30:00,
2013-07-02 15:40:00,79.9,79.9,29.94,ESE,104,12.0,12.0,100,0.00,,,0.00,Wunderground v.1.15,2013-07-02 19:40:00,
2013-07-02 15:45:00,79.9,79.9,29.94,East,99,11.0,12.0,100,0.00,,,0.00,Wunderground v.1.15,2013-07-02 19:45:00,
2013-07-02 15:55:00,79.8,79.8,29.94,ESE,116,11.0,13.0,100,0.00,,,0.00,Wunderground v.1.15,2013-07-02 19:55:00,
2013-07-02 16:05:00,79.6,79.6,29.93,ESE,112,11.0,11.0,100,0.00,,,0.00,Wunderground v.1.15,2013-07-02 20:05:00,
2013-07-02 16:15:00,80.3,80.3,29.91,East,96,10.0,11.0,100,0.00,,,0.00,Wunderground v.1.15,2013-07-02 20:15:00,
2013-07-02 16:25:00,81.1,81.1,29.91,ESE,116,11.0,14.0,100,0.00,,,0.00,Wunderground v.1.15,2013-07-02 20:25:00,
2013-07-02 16:30:00,80.3,80.3,29.92,ESE,120,11.0,14.0,100,0.00,,,0.00,Wunderground v.1.15,2013-07-02 20:30:00,
2013-07-02 16:40:00,80.5,80.5,29.92,SE,131,11.0,16.0,100,0.00,,,0.00,Wunderground v.1.15,2013-07-02 20:40:00,
2013-07-02 16:50:00,81.2,81.2,29.93,ESE,110,11.0,13.0,100,0.00,,,0.00,Wunderground v.1.15,2013-07-02 20:50:00,
2013-07-02 17:00:00,81.2,81.2,29.93,ESE,109,10.0,10.0,100,0.00,,,0.00,Wunderground v.1.15,2013-07-02 21:00:00,
2013-07-02 17:10:00,81.1,81.1,29.93,ESE,113,10.0,10.0,100,0.00,,,0.00,Wunderground v.1.15,2013-07-02 21:10:00,
2013-07-02 17:15:00,80.9,80.9,29.93,ESE,117,8.0,10.0,100,0.00,,,0.00,Wunderground v.1.15,2013-07-02 21:15:00,
2013-07-02 17:25:00,80.7,80.7,29.93,ESE,116,6.0,12.0,100,0.00,,,0.00,Wunderground v.1.15,2013-07-02 21:25:00,
2013-07-02 17:35:00,80.5,80.5,29.93,ESE,117,7.0,7.0,100,0.00,,,0.00,Wunderground v.1.15,2013-07-02 21:35:00,
2013-07-02 17:45:00,80.7,80.7,29.93,East,80,6.0,8.0,100,0.00,,,0.00,Wunderground v.1.15,2013-07-02 21:45:00,
2013-07-02 17:55:00,80.9,80.9,29.93,ENE,73,7.0,12.0,100,0.00,,,0.00,Wunderground v.1.15,2013-07-02 21:55:00,
2013-07-02 18:05:00,81.1,81.1,29.93,SE,130,6.0,7.0,100,0.00,,,0.00,Wunderground v.1.15,2013-07-02 22:05:00,
2013-07-02 18:10:00,81.1,81.1,29.93,ESE,114,4.0,4.0,100,0.00,,,0.00,Wunderground v.1.15,2013-07-02 22:10:00,
2013-07-02 18:20:00,81.2,81.2,29.93,SE,127,4.0,4.0,100,0.00,,,0.00,Wunderground v.1.15,2013-07-02 22:20:00,
2013-07-02 18:30:00,81.6,81.6,29.94,SE,137,3.0,6.0,100,0.00,,,0.00,Wunderground v.1.15,2013-07-02 22:30:00,
2013-07-02 18:35:00,81.6,81.6,29.94,ESE,104,4.0,6.0,100,0.00,,,0.00,Wunderground v.1.15,2013-07-02 22:35:00,
2013-07-02 18:45:00,81.6,81.6,29.94,SE,127,5.0,11.0,100,0.00,,,0.00,Wunderground v.1.15,2013-07-02 22:45:00,
2013-07-02 18:55:00,81.8,81.8,29.94,ESE,104,5.0,7.0,100,0.00,,,0.00,Wunderground v.1.15,2013-07-02 22:55:00,
2013-07-02 19:05:00,81.4,81.4,29.95,SE,138,5.0,5.0,100,0.00,,,0.00,Wunderground v.1.15,2013-07-02 23:05:00,
2013-07-02 19:15:00,80.1,80.1,29.96,SSE,164,10.0,13.0,100,0.00,,,0.00,Wunderground v.1.15,2013-07-02 23:15:00,
2013-07-02 19:20:00,79.0,79.0,29.96,South,179,11.0,11.0,100,0.00,,,0.00,Wunderground v.1.15,2013-07-02 23:20:00,
2013-07-02 19:30:00,78.1,78.1,29.96,WSW,237,8.0,8.0,100,0.00,,,0.01,Wunderground v.1.15,2013-07-02 23:30:00,
2013-07-02 19:40:00,77.2,77.2,29.96,SW,217,5.0,6.0,100,0.07,,,0.02,Wunderground v.1.15,2013-07-02 23:40:00,
2013-07-02 19:45:00,77.2,77.2,29.96,SW,222,6.0,7.0,100,0.04,,,0.02,Wunderground v.1.15,2013-07-02 23:45:00,
2013-07-02 19:55:00,77.2,77.2,29.96,WSW,237,5.0,6.0,100,0.00,,,0.02,Wunderground v.1.15,2013-07-02 23:55:00,
2013-07-02 20:00:00,76.8,76.8,29.97,WSW,239,3.0,3.0,100,0.00,,,0.02,Wunderground v.1.15,2013-07-03 00:00:00,
2013-07-02 20:10:00,76.7,76.7,29.97,West,264,1.0,1.0,100,0.00,,,0.03,Wunderground v.1.15,2013-07-03 00:10:00,
2013-07-02 20:15:00,76.1,76.1,29.98,West,271,1.0,7.0,100,0.00,,,0.03,Wunderground v.1.15,2013-07-03 00:15:00,
2013-07-02 20:25:00,75.4,75.4,29.98,West,277,1.0,3.0,100,0.00,,,0.03,Wunderground v.1.15,2013-07-03 00:25:00,
2013-07-02 20:35:00,75.3,75.3,29.99,WNW,284,1.0,2.0,100,0.00,,,0.03,Wunderground v.1.15,2013-07-03 00:35:00,
2013-07-02 20:40:00,75.4,75.4,29.99,WNW,284,0.0,0.0,100,0.00,,,0.03,Wunderground v.1.15,2013-07-03 00:40:00,
2013-07-02 20:45:00,75.6,75.6,29.99,WNW,284,0.0,0.0,100,0.00,,,0.03,Wunderground v.1.15,2013-07-03 00:45:00,
2013-07-02 20:50:00,75.6,75.6,29.99,WNW,284,0.0,0.0,100,0.00,,,0.03,Wunderground v.1.15,2013-07-03 00:50:00,
2013-07-02 20:55:00,75.6,75.6,29.99,WNW,284,0.0,0.0,100,0.00,,,0.03,Wunderground v.1.15,2013-07-03 00:55:00,
2013-07-02 21:00:00,75.6,75.6,29.99,WNW,284,0.0,0.0,100,0.00,,,0.03,Wunderground v.1.15,2013-07-03 01:00:00,
2013-07-02 21:10:00,75.8,75.8,29.99,WNW,284,0.0,0.0,100,0.00,,,0.03,Wunderground v.1.15,2013-07-03 01:10:00,
2013-07-02 21:15:00,75.8,75.8,30.00,WNW,284,0.0,0.0,100,0.00,,,0.03,Wunderground v.1.15,2013-07-03 01:15:00,
2013-07-02 21:25:00,76.0,76.0,30.00,WNW,284,0.0,0.0,100,0.00,,,0.03,Wunderground v.1.15,2013-07-03 01:25:00,
2013-07-02 21:30:00,76.1,76.1,30.01,WNW,284,0.0,0.0,100,0.00,,,0.03,Wunderground v.1.15,2013-07-03 01:30:00,
2013-07-02 21:35:00,76.1,76.1,30.01,WNW,284,0.0,0.0,100,0.00,,,0.03,Wunderground v.1.15,2013-07-03 01:35:00,
2013-07-02 21:45:00,76.3,76.3,30.01,WNW,284,0.0,0.0,100,0.00,,,0.04,Wunderground v.1.15,2013-07-03 01:45:00,
2013-07-02 21:50:00,76.3,76.3,30.01,WNW,284,0.0,0.0,100,0.00,,,0.04,Wunderground v.1.15,2013-07-03 01:50:00,
2013-07-02 21:55:00,76.5,76.5,30.01,WNW,284,0.0,0.0,100,0.00,,,0.04,Wunderground v.1.15,2013-07-03 01:55:00,
2013-07-02 22:05:00,76.5,76.5,30.00,WNW,284,0.0,0.0,100,0.00,,,0.04,Wunderground v.1.15,2013-07-03 02:05:00,
2013-07-02 22:15:00,76.5,76.5,30.00,WNW,284,0.0,0.0,100,0.00,,,0.04,Wunderground v.1.15,2013-07-03 02:15:00,
2013-07-02 22:25:00,76.8,76.8,30.00,WNW,284,0.0,0.0,100,0.00,,,0.04,Wunderground v.1.15,2013-07-03 02:25:00,
2013-07-02 22:35:00,77.0,77.0,30.00,WNW,284,0.0,0.0,100,0.00,,,0.04,Wunderground v.1.15,2013-07-03 02:35:00,
2013-07-02 22:45:00,77.0,77.0,30.00,WNW,284,0.0,0.0,100,0.00,,,0.04,Wunderground v.1.15,2013-07-03 02:45:00,
2013-07-02 22:50:00,77.0,77.0,30.00,WNW,284,0.0,0.0,100,0.00,,,0.04,Wunderground v.1.15,2013-07-03 02:50:00,
2013-07-02 23:05:00,77.0,77.0,30.00,WNW,284,0.0,0.0,100,0.00,,,0.04,Wunderground v.1.15,2013-07-03 03:05:00,
2013-07-02 23:15:00,77.2,77.2,30.01,WNW,284,0.0,0.0,100,0.00,,,0.04,Wunderground v.1.15,2013-07-03 03:15:00,
2013-07-02 23:25:00,77.2,77.2,30.01,WNW,284,0.0,0.0,100,0.00,,,0.04,Wunderground v.1.15,2013-07-03 03:25:00,
2013-07-02 23:35:00,77.2,77.2,30.01,WNW,284,0.0,0.0,100,0.00,,,0.04,Wunderground v.1.15,2013-07-03 03:35:00,
2013-07-02 23:45:00,77.4,77.4,30.01,North,0,0.0,0.0,100,0.00,,,0.04,Wunderground v.1.15,2013-07-03 03:45:00,
2013-07-02 23:50:00,77.4,77.4,30.01,North,0,0.0,0.0,100,0.00,,,0.04,Wunderground v.1.15,2013-07-03 03:50:00,
2013-07-02 23:55:00,77.6,77.6,30.01,North,0,0.0,0.0,100,0.00,,,0.04,Wunderground v.1.15,2013-07-03 03:55:00,